Content
SEND FEEDBACK

Daily
Averages
Monthly
Summary
Philippines

TANQUE, PHILIPPINES


Home > Asia > Philippines
Elevation: 43 feet     Latitude: 14 34N     Longitude: 120 58E

WEATHER
 
SELECT A DAY
Number of Records: 172,421;   Date Range: 7/1/96 - 7/23/14
 
SHARE

PRINT THIS DATA

[ ← Previous Day ]
WEATHER ALMANAC - MARCH 1, 2013
[ Next Day → ]
[ °C ]   °F
Weather ElementAverageHighLow
Temperature82.9 °F90 °F (2:00 pm)73.4 °F (6:00 am)
Dewpoint68.9 °F72 °F (2:00 am)62.6 °F (4:00 pm)
Humidity62.4 %94 % (6:00 am)34 % (2:00 pm)
Barometer29.89 in29.98 in (10:00 am)29.83 in (3:00 pm)
Wind Speed8.5 mph13.8 mph (3:00 pm)
Weather ElementAverage
Visibility6.1 mi
Wind DirectionESE (122.9 °)

Weather ElementTotal
Precipitation---
Cooling Degree Days16.7 (Base 65)
Growing Degree Days31.7 (Base 50)
Averaged from 31 records on March 1, 2013
WEATHER CONDITIONS BREAKOUT
WIND DIRECTION BREAKOUT
WEATHER BY HOUR - MARCH 1, 2013
[ °C ]   °F
Local TimeTemperatureDewpointHumidityBarometerVisibilityWind DirectionWind SpeedGust SpeedPrecipitationEventsConditions
1:00 AM78.8 °F71.6 °F78 %29.89 inSE (130°)6.9 mphClear
2:00 AM79.0 °F72.0 °F73 %29.87 in6.0 miESE (110°)6.7 mphClear
2:00 AM78.8 °F71.6 °F78 %29.86 inESE (110°)5.8 mphClear
3:00 AM78.8 °F71.6 °F78 %29.86 inESE (110°)6.9 mphClear
4:00 AM77.0 °F71.6 °F83 %29.86 inEast (90°)6.9 mphClear
5:00 AM77.0 °F72.0 °F81 %29.88 in6.0 miEast (100°)4.5 mphClear
5:00 AM77.0 °F71.6 °F83 %29.86 inEast (100°)3.5 mphClear
6:00 AM73.4 °F71.6 °F94 %29.89 in6.2 miENE (70°)3.5 mphPartly Cloudy
7:00 AM78.8 °F71.6 °F78 %29.92 in6.2 miEast (90°)5.8 mphPartly Cloudy
8:00 AM82.0 °F71.0 °F61 %29.95 in6.0 miSE (130°)8.9 mphHaze
8:00 AM82.4 °F71.6 °F70 %29.95 in6.2 miSE (130°)8.1 mphPartly Cloudy
9:00 AM82.4 °F69.8 °F66 %29.95 in6.2 miESE (110°)10.4 mphPartly Cloudy
10:00 AM84.2 °F69.8 °F62 %29.98 in6.2 miESE (120°)10.4 mphPartly Cloudy
11:00 AM87.0 °F69.0 °F45 %29.94 in6.0 miESE (120°)4.5 mphHaze
11:00 AM86.0 °F68.0 °F55 %29.95 in6.2 miESE (120°)10.4 mphPartly Cloudy
12:00 PM87.8 °F68.0 °F52 %29.92 in6.2 miSE (140°)11.5 mphPartly Cloudy
1:00 PM89.6 °F68.0 °F49 %29.89 in6.2 miSE (130°)11.5 mphPartly Cloudy
2:00 PM90.0 °F65.0 °F34 %29.88 in6.0 miSE (140°)11.2 mphScattered Clouds
2:00 PM89.6 °F66.2 °F46 %29.86 in6.2 miSE (140°)12.7 mphPartly Cloudy
3:00 PM89.6 °F64.4 °F43 %29.83 in6.2 miSE (140°)13.8 mphPartly Cloudy
4:00 PM89.6 °F62.6 °F40 %29.83 in6.2 miSSE (150°)9.2 mphPartly Cloudy
5:00 PM88.0 °F64.0 °F35 %29.85 in6.0 miSE (140°)11.2 mphScattered Clouds
5:00 PM87.8 °F64.4 °F46 %29.83 in6.2 miSE (140°)11.5 mphPartly Cloudy
6:00 PM86.0 °F66.2 °F51 %29.83 in6.2 miSE (130°)11.5 mphPartly Cloudy
7:00 PM82.4 °F68.0 °F62 %29.86 in6.2 miSE (130°)11.5 mphPartly Cloudy
8:00 PM82.0 °F69.0 °F56 %29.89 in6.0 miSE (140°)6.7 mphClear
8:00 PM82.4 °F68.0 °F62 %29.89 inSE (140°)6.9 mphClear
9:00 PM80.6 °F69.8 °F70 %29.92 inESE (120°)9.2 mphClear
10:00 PM80.6 °F69.8 °F70 %29.92 inSE (130°)6.9 mphClear
11:00 PM80.0 °F69.0 °F62 %29.94 in6.0 miSE (130°)6.7 mphScattered Clouds
11:00 PM80.6 °F69.8 °F70 %29.95 in6.2 miSE (130°)6.9 mphPartly Cloudy
Hourly data recorded from RPLL, located miles away from Tanque, Philippines







STORIES FROM OUR PARTNERS